This is the latest recevied weather packets stored in our database for station/object NEWPRT. If no packets are shown the sender has not sent any weather packets the latest 10 day(s).
| Time | Temp. | Humidity | Pressure | Rain* | Wind** | Luminosity | Snow |
|---|---|---|---|---|---|---|---|
| 1777441532 | - | 56% | 1025 hPa | 0 mm | - | - | - |
| 1777441208 | - | 58% | 1024.8 hPa | 0 mm | - | - | - |
| 1777440885 | - | 58% | 1024.9 hPa | 0 mm | - | - | - |
| 1777440562 | - | 57% | 1025.1 hPa | 0 mm | - | - | - |
| 1777440239 | - | 60% | 1025.2 hPa | 0 mm | - | - | - |
| 1777439916 | - | 59% | 1025.2 hPa | 0 mm | - | - | - |
| 1777439593 | - | 59% | 1025 hPa | 0 mm | - | - | - |
| 1777439270 | - | 58% | 1025.1 hPa | 0 mm | - | - | - |
| 1777438947 | - | 58% | 1025.1 hPa | 0 mm | - | - | - |
| 1777438624 | - | 56% | 1024.9 hPa | 0 mm | - | - | - |
| 1777438302 | - | 59% | 1024.7 hPa | 0 mm | - | - | - |
| 1777437978 | - | 59% | 1024.9 hPa | 0 mm | - | - | - |
| 1777437655 | - | 61% | 1025.3 hPa | 0 mm | - | - | - |
| 1777437332 | - | 61% | 1025.1 hPa | 0 mm | - | - | - |
| 1777437009 | - | 59% | 1025 hPa | 0 mm | - | - | - |
| 1777436686 | - | 58% | 1024.9 hPa | 0 mm | - | - | - |
| 1777436363 | - | 58% | 1025 hPa | 0 mm | - | - | - |
| 1777436040 | - | 57% | 1024.9 hPa | 0 mm | - | - | - |
| 1777435716 | - | 58% | 1024.8 hPa | 0 mm | - | - | - |
| 1777435393 | - | 57% | 1024.5 hPa | 0 mm | - | - | - |
| 1777435071 | - | 58% | 1024.9 hPa | 0 mm | - | - | - |
| 1777434748 | - | 60% | 1024.9 hPa | 0 mm | - | - | - |
| 1777434425 | - | 58% | 1024.7 hPa | 0 mm | - | - | - |
| 1777434103 | - | 61% | 1024.8 hPa | 0 mm | - | - | - |
| 1777433778 | - | 60% | 1024.7 hPa | 0 mm | - | - | - |
* Rain latest hour (hover to see other rain measurements)
** Current wind speed in m/s (hover to see current wind gust speed)